TimeEDT,TemperatureF,Dew PointF,Humidity,Sea Level PressureIn,VisibilityMPH,Wind Direction,Wind SpeedMPH,Gust SpeedMPH,PrecipitationIn,Events,Conditions,WindDirDegrees,DateUTC
12:15 AM,36.3,32.2,85,30.36,10.0,Calm,Calm,-,N/A,,Clear,0,2013-04-26 04:15:00
12:35 AM,37.9,32.0,79,30.36,10.0,Calm,Calm,-,N/A,,Clear,0,2013-04-26 04:35:00
12:55 AM,36.5,32.5,86,30.36,10.0,Calm,Calm,-,N/A,,Clear,0,2013-04-26 04:55:00
1:15 AM,36.5,32.4,85,30.36,10.0,Calm,Calm,-,N/A,,Clear,0,2013-04-26 05:15:00
1:35 AM,36.7,33.3,87,30.36,10.0,Calm,Calm,-,N/A,,Clear,0,2013-04-26 05:35:00
1:55 AM,35.1,32.5,91,30.36,10.0,Calm,Calm,-,N/A,,Clear,0,2013-04-26 05:55:00
2:15 AM,34.9,32.0,89,30.36,10.0,Calm,Calm,-,N/A,,Clear,0,2013-04-26 06:15:00
2:35 AM,35.8,32.0,86,30.34,10.0,Calm,Calm,-,N/A,,Clear,0,2013-04-26 06:35:00
3:15 AM,34.0,32.4,94,30.33,10.0,Calm,Calm,-,N/A,,Clear,0,2013-04-26 07:15:00
3:35 AM,34.0,32.0,92,30.33,10.0,Calm,Calm,-,N/A,,Clear,0,2013-04-26 07:35:00
3:55 AM,32.9,31.8,96,30.33,10.0,Calm,Calm,-,N/A,,Clear,0,2013-04-26 07:55:00
4:15 AM,33.6,32.4,95,30.33,10.0,Calm,Calm,-,N/A,,Clear,0,2013-04-26 08:15:00
4:35 AM,32.4,32.0,99,30.34,10.0,Calm,Calm,-,N/A,,Clear,0,2013-04-26 08:35:00
4:55 AM,32.9,31.8,96,30.34,10.0,Calm,Calm,-,N/A,,Clear,0,2013-04-26 08:55:00
5:15 AM,32.0,31.5,98,30.35,10.0,Calm,Calm,-,N/A,,Clear,0,2013-04-26 09:15:00
5:35 AM,32.4,31.6,97,30.35,10.0,Calm,Calm,-,N/A,,Clear,0,2013-04-26 09:35:00
5:55 AM,32.0,30.7,95,30.36,10.0,Calm,Calm,-,N/A,,Clear,0,2013-04-26 09:55:00
6:15 AM,32.0,31.8,99,30.37,7.0,Calm,Calm,-,N/A,,Clear,0,2013-04-26 10:15:00
6:35 AM,32.0,31.6,99,30.37,10.0,Calm,Calm,-,N/A,,Clear,0,2013-04-26 10:35:00
6:55 AM,31.5,30.2,95,30.37,10.0,Calm,Calm,-,N/A,,Clear,0,2013-04-26 10:55:00
7:15 AM,32.2,31.6,98,30.38,10.0,Calm,Calm,-,N/A,,Clear,0,2013-04-26 11:15:00
7:35 AM,32.0,31.3,97,30.39,7.0,Calm,Calm,-,N/A,,Clear,0,2013-04-26 11:35:00
7:55 AM,33.6,32.5,96,30.39,7.0,Calm,Calm,-,N/A,,Clear,0,2013-04-26 11:55:00
8:15 AM,36.0,33.4,91,30.40,10.0,Calm,Calm,-,N/A,,Clear,0,2013-04-26 12:15:00
8:35 AM,37.6,35.1,91,30.41,10.0,Calm,Calm,-,N/A,,Clear,0,2013-04-26 12:35:00
8:55 AM,40.1,35.6,84,30.40,10.0,Calm,Calm,-,N/A,,Clear,0,2013-04-26 12:55:00
9:15 AM,43.2,35.4,74,30.39,10.0,Calm,Calm,-,N/A,,Clear,0,2013-04-26 13:15:00
9:35 AM,46.4,38.3,73,30.38,10.0,Calm,Calm,-,N/A,,Clear,0,2013-04-26 13:35:00
9:55 AM,49.1,38.1,66,30.37,10.0,Calm,Calm,-,N/A,,Clear,0,2013-04-26 13:55:00
10:15 AM,53.1,37.8,56,30.38,10.0,SW,3.5,-,N/A,,Clear,230,2013-04-26 14:15:00
10:35 AM,56.1,38.8,52,30.37,10.0,West,3.5,-,N/A,,Clear,270,2013-04-26 14:35:00
10:55 AM,58.5,36.0,43,30.37,10.0,West,3.5,-,N/A,,Clear,260,2013-04-26 14:55:00
11:15 AM,61.9,34.0,35,30.37,10.0,WSW,5.8,-,N/A,,Clear,250,2013-04-26 15:15:00
11:35 AM,63.1,35.8,36,30.37,10.0,Calm,Calm,-,N/A,,Clear,0,2013-04-26 15:35:00
11:55 AM,63.9,39.0,40,30.37,10.0,West,9.2,-,N/A,,Clear,270,2013-04-26 15:55:00
12:15 PM,65.5,38.5,37,30.37,10.0,WNW,9.2,-,N/A,,Clear,290,2013-04-26 16:15:00
12:35 PM,68.0,32.9,27,30.37,10.0,WSW,8.1,-,N/A,,Clear,250,2013-04-26 16:35:00
12:55 PM,67.8,29.7,24,30.36,10.0,SW,3.5,-,N/A,,Clear,220,2013-04-26 16:55:00
1:15 PM,69.3,33.4,27,30.36,10.0,SW,5.8,-,N/A,,Clear,230,2013-04-26 17:15:00
1:35 PM,69.6,36.7,30,30.36,10.0,West,8.1,-,N/A,,Clear,270,2013-04-26 17:35:00
1:55 PM,69.3,34.3,28,30.35,10.0,SW,8.1,-,N/A,,Clear,230,2013-04-26 17:55:00
2:15 PM,69.3,41.0,36,30.34,10.0,West,8.1,-,N/A,,Clear,280,2013-04-26 18:15:00
2:35 PM,70.0,34.2,27,30.33,10.0,SW,3.5,-,N/A,,Clear,230,2013-04-26 18:35:00
2:55 PM,68.0,39.7,36,30.33,10.0,WSW,8.1,-,N/A,,Clear,240,2013-04-26 18:55:00
3:15 PM,68.9,41.4,37,30.33,10.0,West,8.1,-,N/A,,Clear,270,2013-04-26 19:15:00
3:35 PM,70.5,35.4,28,30.30,10.0,Calm,Calm,-,N/A,,Clear,0,2013-04-26 19:35:00
3:55 PM,68.0,40.6,37,30.30,10.0,West,6.9,-,N/A,,Clear,270,2013-04-26 19:55:00
4:15 PM,72.1,36.7,27,30.28,10.0,WSW,4.6,-,N/A,,Clear,250,2013-04-26 20:15:00
4:35 PM,72.3,36.7,27,30.28,10.0,West,5.8,-,N/A,,Clear,260,2013-04-26 20:35:00
4:55 PM,71.1,38.5,31,30.27,10.0,West,11.5,-,N/A,,Clear,270,2013-04-26 20:55:00
5:15 PM,72.3,38.1,29,30.26,10.0,WSW,9.2,-,N/A,,Clear,240,2013-04-26 21:15:00
5:35 PM,72.0,35.6,26,30.27,10.0,WSW,3.5,-,N/A,,Clear,240,2013-04-26 21:35:00
5:55 PM,72.0,36.7,28,30.27,10.0,SW,9.2,-,N/A,,Clear,230,2013-04-26 21:55:00
6:15 PM,70.0,35.8,29,30.28,10.0,SW,6.9,17.3,N/A,,Scattered Clouds,230,2013-04-26 22:15:00
6:35 PM,69.3,35.2,29,30.29,10.0,South,6.9,-,N/A,,Mostly Cloudy,180,2013-04-26 22:35:00
6:55 PM,68.4,35.8,30,30.31,10.0,South,6.9,-,N/A,,Mostly Cloudy,190,2013-04-26 22:55:00
7:15 PM,67.5,35.8,31,30.32,10.0,SSW,4.6,-,N/A,,Mostly Cloudy,210,2013-04-26 23:15:00
7:35 PM,65.8,39.0,37,30.35,10.0,West,8.1,-,N/A,,Overcast,260,2013-04-26 23:35:00
7:55 PM,66.2,37.0,34,30.34,10.0,South,4.6,-,N/A,,Mostly Cloudy,190,2013-04-26 23:55:00
8:15 PM,64.9,38.5,38,30.34,10.0,SSW,3.5,-,N/A,,Scattered Clouds,200,2013-04-27 00:15:00
8:35 PM,63.7,39.4,41,30.34,10.0,WSW,4.6,-,N/A,,Scattered Clouds,250,2013-04-27 00:35:00
8:55 PM,62.2,40.6,45,30.34,10.0,NNW,3.5,-,N/A,,Scattered Clouds,330,2013-04-27 00:55:00
9:15 PM,59.4,43.5,56,30.30,10.0,ESE,5.8,-,N/A,,Mostly Cloudy,110,2013-04-27 01:15:00
9:35 PM,59.5,43.0,54,30.29,10.0,ENE,3.5,-,N/A,,Overcast,70,2013-04-27 01:35:00
9:55 PM,57.9,44.6,61,30.30,10.0,Calm,Calm,-,N/A,,Overcast,0,2013-04-27 01:55:00
10:15 PM,59.7,40.8,50,30.31,10.0,WNW,3.5,-,N/A,,Overcast,290,2013-04-27 02:15:00
10:35 PM,57.4,45.5,65,30.32,10.0,WSW,5.8,-,N/A,Rain,Light Rain,250,2013-04-27 02:35:00
10:55 PM,55.2,46.8,73,30.34,10.0,WSW,5.8,-,N/A,,Overcast,250,2013-04-27 02:55:00
11:15 PM,56.8,45.1,65,30.36,10.0,West,3.5,-,N/A,,Overcast,260,2013-04-27 03:15:00
11:35 PM,56.1,45.5,68,30.35,10.0,Calm,Calm,-,N/A,Rain,Light Rain,0,2013-04-27 03:35:00
11:55 PM,56.1,45.7,68,30.35,10.0,SW,4.6,-,N/A,,Overcast,230,2013-04-27 03:55:00